(119316) = 2001 SR80 = 2003 BV26

Discovered at Socorro on 2001-09-20 by LINEAR.

Orbit

Orbit type: Main Belt

Note: WebGL enabled browser required.

epoch2023-09-13.0
epoch JD2460200.5
perihelion date2021-03-09.70486
perihelion JD2459283.20486
argument of perihelion (°)263.52140
ascending node (°)185.31070
inclination (°)4.08476
eccentricity0.1646485
perihelion distance (AU)1.9986695
Tisserand w.r.t. Jupiter3.5
ΔV w.r.t. Earth (km/sec)8.9
semimajor axis (AU)2.3926091
mean anomaly (°)244.28979
mean daily motion (°/day)0.26631540
aphelion distance (AU)2.787
period (years)3.7
P-vector [x]0.02061584
P-vector [y]0.94313921
P-vector [z]0.33175806
Q-vector [x]-0.99976573
Q-vector [y]0.02163552
Q-vector [z]0.00062002
absolute magnitude16.25
phase slope0.15
uncertainty0
referenceMPO 777570
observations used978
oppositions17
arc length (days)10064
first opposition used1996
last opposition used2023
residual rms (arc-secs)0.70
perturbers coarse indicatorM-v
perturbers precise indicator003Ek
first observation date used1996-04-20.0
last observation date used2023-11-09.0
computer nameMPCLINUX
JD of orbit computation2456819.478659
perihelion JD uncertainty (days)4.6603E-05
argument of perihelion uncertainty (°)3.5378E-05
ascending node uncertainty (°)3.1735E-05
inclination uncertainty (°)3.5624E-06
eccentricity uncertainty 2.0784E-08
perihelion distance uncertainty (AU)4.7857E-08
Minimum Orbit Intersection Distances (in AU)
for orbit epoch: 2460200.5, reference: E2023-VG7
Mercury1.6941
Venus1.28264
Earth1.01868
Mars0.43868
Jupiter2.4219
Saturn7.05718
Uranus16.0814
Neptune27.4938

Observations

994 total observations over interval: 1996 04 20.23789 – 2023 11 09.225616
These data are available for download (format description).

Date (UT) J2000 RA J2000 Dec Magn Location Ref
1996 04 20.23789 13 41 35.67 -07 48 39.3   691 – Steward Observatory, Kitt Peak-Spacewatch MPS 178994
1996 04 20.26175 13 41 34.31 -07 48 29.5   691 – Steward Observatory, Kitt Peak-Spacewatch MPS 178994
1996 04 20.28799 13 41 32.84 -07 48 19.0 20.1 V 691 – Steward Observatory, Kitt Peak-Spacewatch MPS 178994
1998 12 15.40252 06 16 49.78 +15 30 17.2 18.1   704 – Lincoln Laboratory ETS, New Mexico MPS 140996
1998 12 15.41736 06 16 48.77 +15 30 16.3 18.1   704 – Lincoln Laboratory ETS, New Mexico MPS 140996
1998 12 15.43222 06 16 47.95 +15 30 16.4 18.2   704 – Lincoln Laboratory ETS, New Mexico MPS 140996
1998 12 15.44715 06 16 47.09 +15 30 16.3 18.2   704 – Lincoln Laboratory ETS, New Mexico MPS 140996
2000 06 03.23268 15 29 24.14 -13 35 11.9 20.8 V 691 – Steward Observatory, Kitt Peak-Spacewatch MPS 140996
2000 06 03.25461 15 29 22.96 -13 35 08.1 21.2 V 691 – Steward Observatory, Kitt Peak-Spacewatch MPS 140996
2000 06 03.27661 15 29 21.85 -13 35 04.0 21.0 V 691 – Steward Observatory, Kitt Peak-Spacewatch MPS 140996
2001 09 12.26402 21 57 54.97 -08 58 44.4 19.4   704 – Lincoln Laboratory ETS, New Mexico MPS 43885
2001 09 12.27852 21 57 54.26 -08 58 49.1 19.7   704 – Lincoln Laboratory ETS, New Mexico MPS 43885
2001 09 12.29299 21 57 53.58 -08 58 54.7 19.8   704 – Lincoln Laboratory ETS, New Mexico MPS 43885
2001 09 12.30758 21 57 52.83 -08 59 00.9 19.6   704 – Lincoln Laboratory ETS, New Mexico MPS 43885
2001 09 12.32207 21 57 52.23 -08 59 05.7 19.6   704 – Lincoln Laboratory ETS, New Mexico MPS 43885
2001 09 20.17849 21 52 28.92 -09 45 48.9 19.6   704 – Lincoln Laboratory ETS, New Mexico MPS 36599
2001 09 20.19265 21 52 28.36 -09 45 52.7 20.3   704 – Lincoln Laboratory ETS, New Mexico MPS 36599
2001 09 20.22111 21 52 27.30 -09 46 02.6 19.7   704 – Lincoln Laboratory ETS, New Mexico MPS 36599
2001 09 22.17996 21 51 19.78 -09 56 37.3 19.2   704 – Lincoln Laboratory ETS, New Mexico MPS 36599
2001 09 22.19411 21 51 19.33 -09 56 42.5 19.7   704 – Lincoln Laboratory ETS, New Mexico MPS 36599
2001 09 22.20827 21 51 18.77 -09 56 47.0 20.0   704 – Lincoln Laboratory ETS, New Mexico MPS 36599
2001 09 22.23660 21 51 17.80 -09 56 56.5 20.1   704 – Lincoln Laboratory ETS, New Mexico MPS 36599
2001 09 23.20569 21 50 46.77 -10 01 58.0 18.9   704 – Lincoln Laboratory ETS, New Mexico MPS 43885
2001 09 23.22008 21 50 46.29 -10 02 02.7 20.0   704 – Lincoln Laboratory ETS, New Mexico MPS 43885
2001 09 23.23432 21 50 45.82 -10 02 06.8 19.3   704 – Lincoln Laboratory ETS, New Mexico MPS 43885
2003 01 26.39746 10 24 21.58 +04 44 27.8 18.6 R 699 – Lowell Observatory-LONEOS MPS 71908
2003 01 26.41518 10 24 20.94 +04 44 32.2   699 – Lowell Observatory-LONEOS MPS 71908
2003 01 26.43285 10 24 20.23 +04 44 36.7   699 – Lowell Observatory-LONEOS MPS 71908
2003 01 26.45063 10 24 19.57 +04 44 41.4   699 – Lowell Observatory-LONEOS MPS 71908
2003 01 28.32334 10 23 10.78 +04 52 33.6 18.6   704 – Lincoln Laboratory ETS, New Mexico MPS 71908
2003 01 28.33803 10 23 10.20 +04 52 37.8 18.7   704 – Lincoln Laboratory ETS, New Mexico MPS 71908
2003 01 28.35271 10 23 09.58 +04 52 43.0 18.8   704 – Lincoln Laboratory ETS, New Mexico MPS 71908
2003 01 28.36738 10 23 09.01 +04 52 46.4 18.8   704 – Lincoln Laboratory ETS, New Mexico MPS 71908
2003 01 28.38212 10 23 08.40 +04 52 50.6 18.8   704 – Lincoln Laboratory ETS, New Mexico MPS 71908
2003 02 02.38395 10 19 37.59 +05 17 36.7 18.7   704 – Lincoln Laboratory ETS, New Mexico MPS 71908
2003 02 02.39872 10 19 36.94 +05 17 41.6 19.1   704 – Lincoln Laboratory ETS, New Mexico MPS 71908
2003 02 02.41274 10 19 36.23 +05 17 46.3 18.9   704 – Lincoln Laboratory ETS, New Mexico MPS 71908
2003 02 12.37868 10 11 12.71 +06 20 12.6 19.1   608 – Haleakala-AMOS MPS 73344
2003 02 12.38927 10 11 12.12 +06 20 16.8 19.1   608 – Haleakala-AMOS MPS 73344
2003 02 12.40016 10 11 11.48 +06 20 21.4 19.2   608 – Haleakala-AMOS MPS 73344
2003 02 20.44745 10 03 47.83 +07 18 36.8 19.6   608 – Haleakala-AMOS MPS 81438
2003 02 20.45771 10 03 47.25 +07 18 41.1 19.1   608 – Haleakala-AMOS MPS 81438
2003 02 20.46857 10 03 46.59 +07 18 46.8 19.2   608 – Haleakala-AMOS MPS 81438
2003 02 22.23552 10 02 10.06 +07 31 56.4 18.2   644 – Palomar Mountain/NEAT MPS 73994
2003 02 22.26243 10 02 08.54 +07 32 08.6 18.6   644 – Palomar Mountain/NEAT MPS 73994
2003 02 22.30419 10 02 06.17 +07 32 27.4 18.3   644 – Palomar Mountain/NEAT MPS 73994
2003 03 06.21747 09 52 08.66 +08 59 20.4 18.5 R 699 – Lowell Observatory-LONEOS MPS 73994
2003 03 06.23248 09 52 07.94 +08 59 26.6   699 – Lowell Observatory-LONEOS MPS 73994
2003 03 06.24744 09 52 07.30 +08 59 32.6   699 – Lowell Observatory-LONEOS MPS 73994
2003 03 06.26497 09 52 06.45 +08 59 39.6   699 – Lowell Observatory-LONEOS MPS 73994
2003 03 06.28785 09 52 05.39 +08 59 49.6 18.8   704 – Lincoln Laboratory ETS, New Mexico MPS 73994
2003 03 06.30094 09 52 04.81 +08 59 54.8 18.7   704 – Lincoln Laboratory ETS, New Mexico MPS 73994
2003 03 06.34034 09 52 02.98 +09 00 10.6 19.0   704 – Lincoln Laboratory ETS, New Mexico MPS 73994
2003 03 06.39554 09 52 00.53 +09 00 33.7 19.1   644 – Palomar Mountain/NEAT MPS 73994
2003 03 06.40599 09 52 00.08 +09 00 38.4 19.0   644 – Palomar Mountain/NEAT MPS 73994
2003 03 06.41643 09 51 59.57 +09 00 42.6 18.9   644 – Palomar Mountain/NEAT MPS 73994
2003 03 07.23954 09 51 24.39 +09 06 20.5 18.9   704 – Lincoln Laboratory ETS, New Mexico MPS 73994
2003 03 07.25271 09 51 23.77 +09 06 25.6 19.1   704 – Lincoln Laboratory ETS, New Mexico MPS 73994
2003 03 07.26765 09 51 23.12 +09 06 31.9 19.1   704 – Lincoln Laboratory ETS, New Mexico MPS 73994
2003 03 07.28071 09 51 22.51 +09 06 36.7 19.2   704 – Lincoln Laboratory ETS, New Mexico MPS 73994
2003 03 07.29390 09 51 21.91 +09 06 41.8 19.1   704 – Lincoln Laboratory ETS, New Mexico MPS 73994
2003 03 30.213300 09 42 22.981 +11 04 27.79 19.59 V 645 – Apache Point-Sloan Digital Sky Survey MPS 136918
2003 03 30.216772 09 42 22.962 +11 04 28.45 20.52   645 – Apache Point-Sloan Digital Sky Survey MPS 136918
2005 08 30.38231 01 09 26.42 +07 49 43.2 19.1 R 699 – Lowell Observatory-LONEOS MPS 140101
2005 08 30.40504 01 09 26.02 +07 49 40.1   699 – Lowell Observatory-LONEOS MPS 140101
2005 08 30.42778 01 09 25.81 +07 49 34.8   699 – Lowell Observatory-LONEOS MPS 140101
2005 08 30.45054 01 09 25.65 +07 49 29.7   699 – Lowell Observatory-LONEOS MPS 140101
2005 09 01.99969 01 08 55.01 +07 41 23.2 19.2 R 599 – Campo Imperatore-CINEOS MPS 140101
2005 09 02.00966 01 08 54.85 +07 41 21.3 19.1 R 599 – Campo Imperatore-CINEOS MPS 140101
2005 09 02.01964 01 08 54.69 +07 41 19.5 18.9 R 599 – Campo Imperatore-CINEOS MPS 140101
2005 09 02.02962 01 08 54.54 +07 41 17.2 19.0 R 599 – Campo Imperatore-CINEOS MPS 140101
2005 09 08.30955 01 06 51.82 +07 15 42.1 19.2   704 – Lincoln Laboratory ETS, New Mexico MPS 140996
2005 09 08.32091 01 06 51.40 +07 15 38.7 19.9   704 – Lincoln Laboratory ETS, New Mexico MPS 140996
2005 09 08.33223 01 06 51.16 +07 15 35.0 19.6   704 – Lincoln Laboratory ETS, New Mexico MPS 140996
2005 09 08.34356 01 06 50.80 +07 15 32.4 19.7   704 – Lincoln Laboratory ETS, New Mexico MPS 140996
2005 09 08.35493 01 06 50.57 +07 15 29.3 19.5   704 – Lincoln Laboratory ETS, New Mexico MPS 140996
2005 09 15.30756 01 03 20.62 +06 38 13.5 19.0 V 703 – Catalina Sky Survey MPS 141627
2005 09 15.31567 01 03 20.34 +06 38 10.3 19.1 V 703 – Catalina Sky Survey MPS 141627
2005 09 15.32375 01 03 20.05 +06 38 07.9 19.5 V 703 – Catalina Sky Survey MPS 141627
2005 09 15.33181 01 03 19.72 +06 38 03.9 19.6 V 703 – Catalina Sky Survey MPS 141627
2005 09 29.27557 00 53 10.05 +05 00 29.6 18.5 R 699 – Lowell Observatory-LONEOS MPS 142537
2005 09 29.29843 00 53 08.82 +05 00 18.8   699 – Lowell Observatory-LONEOS MPS 142537
2005 09 29.31872 00 53 07.80 +05 00 09.5 18.8 R 644 – Palomar Mountain/NEAT MPS 142537
2005 09 29.32128 00 53 07.65 +05 00 09.2   699 – Lowell Observatory-LONEOS MPS 142537
2005 09 29.32300 00 53 07.54 +05 00 07.8 19.0 V G96 – Mt. Lemmon Survey MPS 142537
2005 09 29.33228 00 53 07.08 +05 00 03.5 18.9 V G96 – Mt. Lemmon Survey MPS 142537
2005 09 29.34161 00 53 06.57 +04 59 59.1 18.9 V G96 – Mt. Lemmon Survey MPS 142537
